Time,TemperatureF,DewpointF,PressureIn,WindDirection,WindDirectionDegrees,WindSpeedMPH,WindSpeedGustMPH,Humidity,HourlyPrecipIn,Conditions,Clouds,dailyrainin,SoftwareType,DateUTC
2013-02-01 00:02:00,35.3,22.0,30.30,WSW,248,1.0,5.0,58,0.00,,,0.00,Wunderground v.1.13,2013-02-01 08:02:00,
2013-02-01 00:32:00,35.3,22.0,30.30,WSW,248,1.0,5.0,58,0.00,,,0.00,Wunderground v.1.13,2013-02-01 08:32:00,
2013-02-01 01:02:00,33.5,23.0,30.31,WSW,248,1.0,5.0,65,0.00,,,0.00,Wunderground v.1.13,2013-02-01 09:02:00,
2013-02-01 01:32:00,32.9,23.1,30.30,WSW,248,0.0,2.0,67,0.00,,,0.00,Wunderground v.1.13,2013-02-01 09:32:00,
2013-02-01 02:02:00,31.5,22.8,30.30,WSW,248,0.0,2.0,70,0.00,,,0.00,Wunderground v.1.13,2013-02-01 10:02:00,
2013-02-01 02:32:00,31.1,24.4,30.30,WSW,248,0.0,1.0,76,0.00,,,0.00,Wunderground v.1.13,2013-02-01 10:32:00,
2013-02-01 03:02:00,29.7,24.0,30.30,N/A,-737280,0.0,0.0,79,0.00,,,0.00,Wunderground v.1.13,2013-02-01 11:02:00,
2013-02-01 03:32:00,30.7,23.4,30.30,WSW,248,0.0,3.0,74,0.00,,,0.00,Wunderground v.1.13,2013-02-01 11:32:00,
2013-02-01 04:02:00,30.9,21.9,30.30,WSW,248,0.0,2.0,69,0.00,,,0.00,Wunderground v.1.13,2013-02-01 12:02:00,
2013-02-01 04:32:00,28.8,21.9,30.34,WSW,248,0.0,1.0,75,0.00,,,0.00,Wunderground v.1.13,2013-02-01 12:32:00,
2013-02-01 05:02:00,30.5,22.5,30.33,WSW,248,1.0,3.0,72,0.00,,,0.00,Wunderground v.1.13,2013-02-01 13:02:00,
2013-02-01 05:32:00,29.9,21.3,30.35,WSW,248,0.0,2.0,70,0.00,,,0.00,Wunderground v.1.13,2013-02-01 13:32:00,
2013-02-01 06:02:00,28.5,21.9,30.35,WSW,248,0.0,1.0,76,0.00,,,0.00,Wunderground v.1.13,2013-02-01 14:02:00,
2013-02-01 06:32:00,27.7,21.1,30.38,N/A,-737280,0.0,0.0,76,0.00,,,0.00,Wunderground v.1.13,2013-02-01 14:32:00,
2013-02-01 07:02:00,27.2,21.5,30.40,N/A,-737280,0.0,0.0,79,0.00,,,0.00,Wunderground v.1.13,2013-02-01 15:02:00,
2013-02-01 07:32:00,27.1,22.0,30.41,N/A,-737280,0.0,0.0,81,0.00,,,0.00,Wunderground v.1.13,2013-02-01 15:32:00,
2013-02-01 08:02:00,28.9,23.2,30.41,WSW,240,0.0,0.0,79,0.00,,,0.00,Wunderground v.1.13,2013-02-01 16:02:00,
2013-02-01 08:32:00,31.4,24.1,30.43,WSW,240,0.0,0.0,74,0.00,,,0.00,Wunderground v.1.13,2013-02-01 16:32:00,
2013-02-01 09:02:00,34.4,24.2,30.41,WSW,240,0.0,0.0,66,0.00,,,0.00,Wunderground v.1.13,2013-02-01 17:02:00,
2013-02-01 09:32:00,34.9,26.1,30.41,WSW,240,0.0,0.0,70,0.00,,,0.00,Wunderground v.1.13,2013-02-01 17:32:00,
2013-02-01 10:02:00,36.8,26.1,30.39,WSW,240,1.0,2.0,65,0.00,,,0.00,Wunderground v.1.13,2013-02-01 18:02:00,
2013-02-01 10:32:00,38.7,25.6,30.41,WSW,240,1.0,2.0,59,0.00,,,0.00,Wunderground v.1.13,2013-02-01 18:32:00,
2013-02-01 11:02:00,40.6,24.8,30.40,WSW,240,1.0,2.0,53,0.00,,,0.00,Wunderground v.1.13,2013-02-01 19:02:00,
2013-02-01 11:32:00,42.8,24.9,30.37,WSW,240,2.0,2.0,49,0.00,,,0.00,Wunderground v.1.13,2013-02-01 19:32:00,
2013-02-01 12:02:00,45.3,25.2,30.34,WSW,240,1.0,1.0,45,0.00,,,0.00,Wunderground v.1.13,2013-02-01 20:02:00,
2013-02-01 12:32:00,46.5,25.2,30.33,WSW,241,1.0,1.0,43,0.00,,,0.00,Wunderground v.1.13,2013-02-01 20:32:00,
2013-02-01 13:02:00,48.1,25.5,30.31,WSW,240,2.0,2.0,41,0.00,,,0.00,Wunderground v.1.13,2013-02-01 21:02:00,
2013-02-01 13:32:00,48.9,26.2,30.32,WSW,241,1.0,2.0,41,0.00,,,0.00,Wunderground v.1.13,2013-02-01 21:32:00,
2013-02-01 14:02:00,49.2,26.5,30.31,WSW,241,0.0,0.0,41,0.00,,,0.00,Wunderground v.1.13,2013-02-01 22:02:00,
2013-02-01 14:32:00,50.3,27.5,30.30,WSW,241,1.0,1.0,41,0.00,,,0.00,Wunderground v.1.13,2013-02-01 22:32:00,
2013-02-01 15:02:00,51.9,28.3,30.29,WSW,241,0.0,0.0,40,0.00,,,0.00,Wunderground v.1.13,2013-02-01 23:02:00,
2013-02-01 15:32:00,51.8,28.8,30.28,WSW,242,0.0,0.0,41,0.00,,,0.00,Wunderground v.1.13,2013-02-01 23:32:00,
2013-02-01 16:02:00,52.0,29.6,30.28,WSW,242,0.0,0.0,42,0.00,,,0.00,Wunderground v.1.13,2013-02-02 00:02:00,
2013-02-01 16:32:00,49.9,29.4,30.30,WSW,241,2.0,3.0,45,0.00,,,0.00,Wunderground v.1.13,2013-02-02 00:32:00,
2013-02-01 17:02:00,45.9,28.8,30.32,WSW,242,4.0,4.0,51,0.00,,,0.00,Wunderground v.1.13,2013-02-02 01:02:00,
2013-02-01 17:32:00,44.7,29.1,30.34,WSW,244,4.0,4.0,54,0.00,,,0.00,Wunderground v.1.13,2013-02-02 01:32:00,
2013-02-01 18:02:00,44.4,29.2,30.35,WSW,242,3.0,3.0,55,0.00,,,0.00,Wunderground v.1.13,2013-02-02 02:02:00,
2013-02-01 18:32:00,42.8,29.0,30.38,WSW,243,1.0,1.0,58,0.00,,,0.00,Wunderground v.1.13,2013-02-02 02:32:00,
2013-02-01 19:02:00,42.0,29.9,30.40,WSW,243,1.0,2.0,62,0.00,,,0.00,Wunderground v.1.13,2013-02-02 03:02:00,
2013-02-01 19:32:00,41.1,29.5,30.39,WSW,244,1.0,1.0,63,0.00,,,0.00,Wunderground v.1.13,2013-02-02 03:32:00,
2013-02-01 20:02:00,39.1,28.7,30.41,WSW,244,0.0,0.0,66,0.00,,,0.00,Wunderground v.1.13,2013-02-02 04:02:00,
2013-02-01 20:32:00,39.6,28.8,30.39,WSW,244,1.0,1.0,65,0.00,,,0.00,Wunderground v.1.13,2013-02-02 04:32:00,
2013-02-01 21:02:00,37.7,28.1,30.41,WSW,244,0.0,0.0,68,0.00,,,0.00,Wunderground v.1.13,2013-02-02 05:02:00,
2013-02-01 21:32:00,38.5,28.5,30.40,WSW,244,2.0,2.0,67,0.00,,,0.00,Wunderground v.1.13,2013-02-02 05:32:00,
2013-02-01 22:02:00,36.2,27.4,30.43,WSW,244,0.0,0.0,70,0.00,,,0.00,Wunderground v.1.13,2013-02-02 06:02:00,
2013-02-01 22:32:00,36.5,26.9,30.39,WSW,248,1.0,4.0,68,0.00,,,0.00,Wunderground v.1.13,2013-02-02 06:32:00,
2013-02-01 23:02:00,36.5,27.6,30.39,WSW,248,1.0,4.0,70,0.00,,,0.00,Wunderground v.1.13,2013-02-02 07:02:00,
2013-02-01 23:32:00,36.3,27.1,30.37,WSW,248,1.0,3.0,69,0.00,,,0.00,Wunderground v.1.13,2013-02-02 07:32:00,